Regional Weather Roundup
Issued by NWS

Home | Current Version | Previous Version | Graphics & Text | Print | Product List | Glossary On
Versions: 1 2 3 4 5 6 7 8 9 10 11 12 13 14 15 16 17 18 19 20 21 22 23 24 25 26 27 28 29 30 31 32 33 34 35 36 37 38 39 40 41 42 43 44 45 46 47 48 49 50
000
ASUS43 KLSX 152259
RWRMO

WEATHER SUMMARY FOR MISSOURI
NATIONAL WEATHER SERVICE SPRINGFIELD MO
600 PM CDT MON SEP 15 2014

NOTE: "FAIR" INDICATES FEW OR NO CLOUDS BELOW 12,000 FEET WITH NO
       SIGNIFICANT WEATHER AND/OR OBSTRUCTIONS TO VISIBILITY.
       CURRENT SKY AND/OR WEATHER CONDITIONS ARE NOT AVAILABLE FOR
       CHILLICOTHE AND FARMINGTON.

MOZ001>031-035>038-043-044-053-054-160000-
...NORTHERN AND WESTERN MISSOURI...

CITY           SKY/WX    TMP DP  RH WIND       PRES   REMARKS
KANSAS CTY INT CLOUDY    64  56  75 N15       30.18R
KANSAS C DTWN  CLOUDY    67  57  70 N15G23    30.16R
LEE`S SUMMIT   CLOUDY    68  60  75 N10       30.15R
ST JOSEPH      CLOUDY    63  52  67 N15G21    30.20R
KIRKSVILLE     CLOUDY    61  55  82 N10       30.16R

$$
MOZ066>068-077>081-088>096-101>105-160000-
...SOUTHWEST MISSOURI...

CITY           SKY/WX    TMP DP  RH WIND       PRES   REMARKS
SPRINGFIELD    MOSUNNY   82  65  56 W13       30.08S
JOPLIN         MOSUNNY   81  68  64 SW8       30.08S

$$
MOZ032>034-039>042-045>050-055>058-069>072-160000-
...CENTRAL MISSOURI...

CITY           SKY/WX    TMP DP  RH WIND       PRES   REMARKS
COLUMBIA       CLOUDY    66  62  87 N10       30.12R
JEFFERSON CITY CLOUDY    70  63  78 N12       30.10R
ROLLA          CLOUDY    70  65  84 NW10      30.09R
SEDALIA        CLOUDY    67  61  81 N14       30.13R
WHITEMAN AFB   CLOUDY    67  61  82 N12       30.13R
OSAGE BEACH    CLOUDY    72  63  73 NW6       30.10R

$$
MOZ051-052-059>065-160000-
...EAST CENTRAL MISSOURI...

CITY           SKY/WX    TMP DP  RH WIND       PRES   REMARKS
ST LOUIS INTL  CLOUDY    70  66  87 NW8       30.07R FOG
SPIRIT OF STL  LGT RAIN  69  67  93 NW3       30.06R FOG
ST CHARLES     CLOUDY    66  63  90 N13       30.07R FOG

$$
MOZ072>076-082>087-097>100-106>115-160000-
...SOUTH CENTRAL AND SOUTHEAST MISSOURI...

CITY           SKY/WX    TMP DP  RH WIND       PRES   REMARKS
CAPE GIRARDEAU MOSUNNY   75  65  70 S10       30.06S
FARMINGTON     CLOUDY    75  66  73 N8        30.09R
POPLAR BLUFF   MOSUNNY   74  63  68 S7        30.07R
WEST PLAINS    SUNNY     78  66  66 SW9       30.10S

$$



USA.gov is the U.S. government's official web portal to all federal, state and local government web resources and services.